Temp
52 52 52 52 52 52 52 52 51 51 51 51 51 51 51 51 51 43 38 39 38 34 36 37 39 37 34 33 35 31 31 27 27 28 28 23 24 22 22 20 15 16 15 12 17 15 12 27 26 26 32 28 32 30
51 51 51 51 51 51 52 52 51 51 51 51 51 51 51 51 51 47 35 40 40 36 33 34 36 38 40 40 36 29 31 25 28 23 25 26 28 25 19 22 20 23 25 19 22 22 31 29 32 37 34 33 31 29
51 51 51 51 51 52 52 52 52 52 52 52 52 52 51 51 51 47 37 37 37 33 31 28 31 34 35 36 39 28 28 29 22 26 25 28 28 22 25 19 18 23 27 24 26 30 33 34 35 34 31 30 31 32
50 50 50 51 51 51 51 51 51 51 52 52 53 53 52 51 51 48 37 37 39 34 28 28 36 33 34 35 35 36 34 32 33 33 32 31 29 33 23 25 26 29 29 29 28 35 36 31 30 33 31 33 32 32
49 50 50 50 50 51 51 51 51 51 52 52 52 52 52 52 51 43 37 42 42 36 26 29 34 29 31 32 31 29 30 33 32 32 30 29 32 31 32 27 29 33 33 28 28 35 32 33 38 33 32 32 32 27
49 49 49 49 50 50 50 50 50 51 51 51 51 51 51 51 48 41 29 41 43 41 32 27 28 30 33 32 30 30 29 31 32 31 30 32 33 31 27 20 24 25 31 33 31 33 32 33 35 34 31 31 30 27
48 49 49 49 49 49 50 50 50 51 51 51 51 51 49 50 42 37 31 37 44 41 33 27 25 27 28 26 23 22 27 29 30 29 27 24 28 32 26 24 34 28 25 26 28 28 29 29 28 31 30 31 30 24
48 48 48 49 49 49 49 49 50 50 50 50 50 49 47 46 42 36 39 44 42 35 33 25 21 21 25 21 19 18 18 21 23 23 22 19 22 20 20 19 20 20 21 22 26 23 26 27 26 27 24 22 24 24
48 48 48 48 49 49 49 49 49 50 49 49 47 44 36 30 29 27 43 43 39 34 27 27 24 16 23 19 15 18 25 20 21 15 17 22 18 14 19 18 19 19 21 24 23 23 23 21 23 22 17 15 15 19
48 48 48 48 48 48 48 49 49 49 47 45 35 26 21 31 42 39 33 31 31 29 30 22 22 17 20 18 18 23 16 15 7 14 20 13 11 13 18 18 23 19 17 10 19 26 23 26 21 18 15 12 13 16
48 48 48 48 48 48 48 48 49 48 44 33 30 21 26 37 31 29 23 21 15 12 19 22 20 24 25 20 18 20 13 12 5 12 13 6 9 12 10 9 17 22 21 22 21 19 14 17 15 15 17 14 14 15
47 47 47 48 48 48 48 48 48 38 30 35 35 34 32 29 25 19 17 15 12 15 22 25 24 25 24 25 18 16 11 9 11 12 8 4 12 17 22 20 24 23 14 16 11 14 14 9 9 10 13 15 18 16
47 47 47 47 48 48 48 48 48 46 42 33 32 30 24 18 17 16 4 7 9 18 19 15 17 20 20 22 15 15 9 9 12 4 5 10 9 12 18 16 18 18 12 10 17 11 8 8 11 14 18 15 12 14
47 47 47 47 48 48 48 48 47 41 33 29 26 17 20 12 16 11 12 12 18 14 15 17 17 20 17 13 10 16 17 13 3 -0 5 15 16 15 16 10 10 18 14 14 15 15 17 18 17 16 15 14 14 13
47 47 47 46 47 48 48 47 46 36 28 24 26 16 12 12 7 7 6 11 17 20 20 18 20 21 15 16 15 11 6 2 8 8 12 17 16 14 12 17 19 17 16 14 14 17 19 18 14 13 12 12 12 13
47 46 40 46 47 47 46 41 35 33 31 26 25 21 20 19 13 11 9 15 20 21 21 19 22 18 13 11 9 7 1 4 13 12 18 16 22 20 22 26 24 22 19 18 18 18 16 13 11 12 12 10 10 12
46 37 44 46 47 46 45 34 33 32 29 25 23 27 14 9 17 20 18 18 21 20 16 19 18 15 12 12 6 9 6 23 26 25 21 26 29 29 27 25 23 20 18 17 16 15 12 14 10 10 10 12 11 12
37 39 45 46 44 38 32 33 32 30 24 19 21 16 16 19 17 19 16 14 19 17 19 21 19 18 16 6 8 14 14 16 21 24 27 29 26 23 22 19 18 16 15 15 13 10 10 11 10 11 11 11 11 11
39 39 43 45 42 34 31 31 32 25 23 14 14 12 15 20 21 26 27 19 21 20 25 23 20 13 10 11 11 14 16 19 17 19 23 21 19 17 15 16 15 14 13 11 9 10 11 12 10 11 11 11 10 13
46 46 46 46 42 32 29 27 32 27 24 21 20 16 12 17 16 13 14 13 17 21 21 19 15 10 11 15 17 15 16 15 15 14 17 18 16 15 13 12 11 12 11 10 11 15 13 11 13 12 11 13 11 10
42 37 44 37 32 32 30 21 19 24 26 22 22 19 13 6 10 9 10 13 10 13 15 11 12 13 14 16 15 13 12 10 10 11 10 10 13 12 12 12 11 12 9 9 7 8 11 9 10 10 10 10 11 13
35 43 33 33 32 31 29 26 21 18 21 18 18 22 19 15 8 6 12 11 10 7 6 7 9 9 10 11 10 10 9 9 10 10 13 12 9 10 10 11 10 7 8 8 8 7 8 9 10 11 10 10 11 9
40 36 32 32 27 26 20 16 24 20 21 16 17 16 16 16 13 11 8 1 1 2 6 7 6 8 9 10 10 9 8 6 6 6 7 7 8 10 9 9 10 7 6 8 9 7 6 11 8 9 9 7 7 6
39 30 27 26 26 19 12 14 13 11 11 10 11 8 7 7 3 12 10 -3 1 6 5 5 6 6 8 7 6 6 6 6 4 5 6 5 4 5 7 7 8 8 8 8 6 5 5 4 8 5 5 4 3 4
27 25 24 21 18 17 12 8 8 10 13 6 5 4 5 6 5 4 5 -0 2 1 4 5 6 5 3 3 4 4 4 3 1 -1 3 5 2 2 3 5 7 7 8 3 1 2 2 3 3 3 2 2 5 6
20 23 20 20 17 15 15 12 12 11 9 6 8 12 12 12 10 8 1 -1 0 3 2 1 1 1 1 3 0 -0 1 3 1 -2 2 4 2 1 -1 -2 -1 2 7 5 -0 -1 1 2 1 0 1 3 7 2
19 16 15 17 15 15 14 15 15 13 11 10 6 5 6 5 2 -1 3 4 3 4 3 3 2 1 -0 -0 1 2 0 -3 -4 -3 1 2 4 5 3 -1 -3 2 6 -2 2 1 -0 -0 0 2 1 1 0 -0
10 9 5 9 11 14 11 11 11 9 8 8 10 6 6 5 3 3 3 3 0 -4 -6 -6 -4 -6 -8 -9 -8 -8 -11 -13 -6 -6 -1 3 4 4 1 3 2 11 7 3 5 -0 -1 1 3 1 0 -2 -3 -1
6 5 7 8 10 10 9 6 5 6 8 7 3 3 3 2 -1 -3 -2 -6 -15 -15 -15 -14 -13 -19 -17 -16 -15 -15 -18 -16 -15 -17 -15 -10 -5 -2 3 2 0 1 1 -0 6 7 5 5 1 3 1 -1 -1 1
1 1 1 1 -1 1 1 -1 -2 -3 -1 -3 -2 -2 -4 -7 -8 -7 -7 -12 -13 -15 -19 -21 -23 -26 -20 -22 -15 -13 -18 -20 -11 -12 -17 -14 -9 -2 -2 -2 -1 0 -2 -5 -5 -5 3 0 -3 -5 -5 -4 -4 -1
-3 -3 -5 -6 -6 -7 -11 -12 -19 -15 -18 -19 -15 -9 -9 -8 -4 -4 -8 -13 -16 -22 -19 -16 -17 -25 -23 -18 -22 -20 -11 -15 -17 -9 -5 -2 0 1 2 3 2 -4 -9 -13 -11 -10 -12 -11 -9 -10 -10 -10 -8 -5
-12 -21 -18 -16 -11 -14 -19 -18 -25 -24 -24 -20 -18 -22 -15 -9 -8 -6 -6 -10 -11 -10 -1 -11 -13 -6 -10 -13 -13 -13 1 -2 -4 -5 -9 -4 -2 3 6 6 0 -6 -9 -11 -12 -13 -15 -16 -14 -14 -12 -12 -11 -10
-26 -28 -28 -25 -18 -16 -18 -17 -19 -20 -21 -20 -16 -17 -17 -7 -9 -3 -3 -4 -3 -5 -4 -4 -6 -8 -10 -11 -9 -8 -1 -8 -9 7 11 11 12 12 10 7 4 -4 -9 -9 -11 -15 -14 -15 -14 -14 -14 -15 -14 -12
MSLP
1028.64 1028.69 1028.69 1028.74 1028.75 1028.81 1028.75 1028.71 1028.66 1028.63 1028.44 1028.21 1028.11 1027.86 1027.66 1027.36 1027.08 1027.21 1027.44 1027.30 1027.23 1027.13 1025.89 1025.00 1024.60 1024.35 1024.43 1024.67 1025.10 1025.53 1026.33 1026.32 1026.44 1026.19 1025.33 1024.42 1023.93 1023.49 1023.99 1024.54 1025.30 1025.77 1026.36 1026.12 1025.33 1024.20 1021.43 1019.20 1020.01 1020.05 1018.95 1018.87 1019.37 1020.00
1029.21 1029.29 1029.29 1029.15 1029.20 1029.17 1029.06 1029.00 1028.94 1028.81 1028.62 1028.42 1028.24 1028.03 1027.82 1027.65 1027.46 1027.38 1027.91 1027.64 1027.43 1027.48 1026.36 1025.60 1024.98 1024.62 1024.45 1024.47 1024.96 1025.34 1025.13 1025.23 1024.98 1025.39 1025.11 1024.45 1023.92 1023.71 1023.87 1024.28 1024.40 1024.62 1023.15 1023.04 1022.73 1020.05 1018.53 1018.52 1017.98 1017.82 1018.08 1018.52 1019.10 1019.83
1029.74 1029.69 1029.58 1029.54 1029.60 1029.60 1029.47 1029.24 1028.99 1028.91 1028.71 1028.53 1028.40 1028.15 1027.89 1027.73 1027.53 1027.78 1028.01 1027.83 1027.64 1027.74 1026.63 1025.92 1024.65 1024.49 1024.61 1024.76 1024.62 1025.36 1024.92 1024.84 1025.07 1024.48 1024.29 1023.95 1023.76 1023.29 1023.75 1023.51 1023.08 1022.68 1021.74 1021.77 1021.07 1018.27 1018.02 1017.74 1017.70 1017.97 1018.38 1018.68 1019.14 1019.35
1030.13 1030.12 1030.10 1029.97 1029.86 1029.79 1029.64 1029.40 1029.23 1029.05 1028.66 1028.47 1028.34 1028.00 1027.68 1027.59 1027.55 1027.57 1028.04 1027.93 1027.85 1027.85 1027.71 1025.58 1024.66 1024.96 1025.10 1025.16 1025.02 1024.92 1025.05 1025.11 1025.04 1024.86 1024.46 1023.66 1023.19 1022.71 1022.09 1021.97 1021.98 1021.42 1021.04 1020.46 1019.03 1017.88 1017.58 1017.85 1017.91 1018.27 1018.43 1018.80 1019.10 1018.93
1030.66 1030.68 1030.46 1030.25 1030.09 1029.83 1029.61 1029.50 1029.38 1029.05 1028.69 1028.51 1028.16 1027.86 1027.59 1027.41 1027.30 1027.56 1027.87 1027.57 1027.53 1027.99 1027.95 1026.70 1025.17 1026.05 1025.71 1025.50 1025.52 1025.45 1025.54 1025.49 1025.16 1024.71 1024.18 1023.37 1022.87 1022.69 1021.73 1021.58 1020.34 1020.73 1019.88 1019.72 1018.24 1018.31 1018.37 1018.11 1017.84 1018.23 1018.55 1018.70 1018.46 1018.89
1031.05 1030.83 1030.73 1030.59 1030.29 1030.10 1029.88 1029.68 1029.36 1028.98 1028.57 1028.25 1027.94 1027.69 1027.52 1027.34 1027.37 1027.56 1027.89 1027.78 1027.39 1027.40 1027.62 1027.13 1026.09 1026.22 1026.24 1026.10 1026.10 1026.01 1025.77 1025.49 1025.11 1024.52 1023.92 1023.23 1022.87 1022.94 1021.94 1021.39 1020.33 1019.95 1019.82 1019.74 1019.45 1018.75 1018.58 1018.36 1018.43 1018.42 1018.47 1018.53 1018.57 1018.78
1031.24 1031.02 1030.84 1030.66 1030.43 1030.30 1030.05 1029.64 1029.18 1028.72 1028.38 1028.16 1027.88 1027.59 1027.41 1027.10 1027.13 1027.49 1027.93 1027.87 1027.66 1027.66 1027.75 1027.32 1026.79 1026.95 1026.68 1026.49 1026.40 1026.29 1025.95 1025.72 1025.43 1025.03 1024.28 1024.06 1023.69 1023.62 1022.71 1022.00 1019.55 1020.44 1020.36 1020.13 1019.84 1019.67 1019.24 1019.08 1019.10 1018.80 1018.78 1018.65 1018.65 1018.57
1031.47 1031.32 1031.05 1030.76 1030.52 1030.15 1029.82 1029.55 1029.07 1028.80 1028.39 1028.02 1027.57 1027.36 1027.30 1027.27 1027.37 1027.82 1027.89 1027.47 1027.46 1027.93 1028.22 1028.23 1027.51 1027.16 1027.21 1027.50 1027.64 1027.17 1027.08 1026.78 1026.42 1025.96 1025.33 1025.09 1024.76 1024.62 1023.69 1021.90 1021.57 1021.33 1021.12 1020.81 1020.42 1020.29 1020.09 1019.77 1019.61 1019.28 1019.30 1019.59 1019.67 1019.32
1031.47 1031.24 1031.08 1030.75 1030.57 1030.14 1029.80 1029.32 1028.89 1028.60 1028.25 1027.88 1027.70 1027.45 1027.86 1028.12 1028.20 1028.43 1028.12 1028.13 1028.17 1028.59 1028.35 1028.21 1028.13 1027.98 1027.55 1027.74 1027.96 1027.65 1027.44 1027.40 1027.12 1026.89 1026.33 1026.21 1025.76 1024.99 1022.81 1022.64 1022.31 1022.02 1022.16 1021.84 1021.11 1020.84 1020.58 1020.64 1020.25 1019.96 1020.09 1020.11 1020.20 1019.59
1031.50 1031.10 1030.76 1030.64 1030.34 1030.09 1029.73 1029.30 1028.73 1028.39 1028.24 1027.93 1028.01 1028.52 1029.01 1029.15 1028.68 1028.87 1028.37 1028.55 1028.66 1029.06 1028.73 1028.60 1028.26 1028.57 1028.38 1028.22 1028.22 1028.34 1027.83 1027.87 1027.86 1027.34 1026.88 1026.75 1026.09 1024.15 1023.01 1022.55 1022.03 1022.02 1021.72 1022.02 1021.96 1021.50 1021.27 1021.06 1020.76 1020.59 1020.54 1020.54 1020.38 1019.88
1031.30 1031.11 1030.67 1030.46 1030.25 1029.89 1029.62 1029.40 1028.93 1028.29 1028.12 1028.74 1029.42 1029.72 1029.56 1029.01 1028.74 1028.81 1029.42 1029.64 1029.94 1029.92 1029.65 1029.25 1028.72 1028.55 1028.03 1028.59 1028.78 1028.43 1028.27 1028.41 1028.64 1028.21 1027.98 1027.52 1026.33 1024.37 1023.15 1022.56 1021.89 1022.14 1022.08 1022.01 1021.89 1021.56 1021.73 1021.83 1021.65 1021.25 1020.61 1020.15 1019.77 1019.43
1031.16 1030.74 1030.60 1030.40 1030.13 1029.98 1029.63 1029.34 1029.06 1029.19 1029.45 1029.19 1029.15 1029.00 1029.42 1029.75 1029.81 1030.21 1030.64 1030.62 1030.82 1030.37 1029.65 1029.23 1028.64 1028.36 1028.14 1028.25 1028.73 1028.72 1028.74 1029.02 1028.73 1028.51 1028.67 1027.81 1025.09 1023.46 1022.98 1022.58 1022.41 1021.99 1021.92 1021.93 1021.84 1021.57 1021.11 1021.23 1021.14 1021.06 1020.77 1020.16 1019.76 1019.45
1031.11 1030.82 1030.60 1030.21 1029.79 1029.60 1029.37 1029.41 1029.23 1028.48 1028.48 1028.77 1029.35 1029.41 1029.85 1030.79 1031.10 1031.55 1032.07 1031.80 1031.44 1030.03 1029.19 1028.91 1028.95 1028.55 1028.34 1028.62 1028.86 1029.09 1029.11 1029.05 1028.52 1028.82 1028.21 1026.33 1023.94 1023.45 1023.06 1022.58 1022.04 1021.45 1021.42 1021.52 1021.25 1021.13 1021.04 1021.09 1021.10 1020.99 1020.60 1020.24 1019.88 1019.46
1030.78 1030.58 1030.34 1029.97 1029.51 1029.09 1028.67 1029.16 1029.27 1029.00 1029.16 1029.67 1029.85 1030.41 1031.07 1031.51 1031.68 1031.52 1031.38 1030.85 1029.85 1029.52 1029.20 1028.93 1029.02 1028.82 1028.51 1028.94 1028.64 1028.94 1028.59 1028.59 1028.65 1028.61 1026.67 1024.31 1023.26 1022.80 1022.37 1022.24 1021.98 1021.39 1021.59 1021.54 1021.33 1021.15 1021.05 1021.00 1020.95 1020.94 1020.74 1020.24 1019.93 1019.37
1030.49 1030.21 1029.76 1029.40 1028.99 1028.84 1028.86 1028.99 1029.08 1029.45 1030.02 1030.33 1030.42 1030.91 1031.13 1030.82 1030.97 1031.07 1031.13 1030.78 1029.48 1029.05 1028.89 1028.78 1028.57 1028.52 1028.55 1028.76 1028.55 1028.68 1028.64 1028.13 1027.15 1025.90 1024.00 1022.67 1022.32 1021.97 1021.48 1021.16 1020.79 1020.80 1021.11 1021.29 1021.13 1021.11 1021.05 1021.00 1020.97 1020.83 1020.61 1020.26 1019.89 1019.21
1030.00 1029.69 1029.39 1029.16 1028.95 1028.91 1029.14 1029.35 1029.52 1029.83 1030.16 1030.45 1030.27 1030.22 1030.35 1031.11 1030.78 1030.97 1030.68 1029.97 1028.83 1028.44 1028.24 1028.30 1028.00 1028.03 1028.13 1028.23 1028.39 1027.81 1027.50 1025.69 1023.67 1023.38 1022.23 1021.83 1021.23 1020.84 1020.66 1020.46 1020.16 1020.29 1020.67 1020.98 1021.14 1021.26 1021.23 1021.07 1020.90 1020.71 1020.31 1019.94 1019.56 1019.08
1029.54 1029.67 1029.24 1029.10 1028.91 1028.83 1028.79 1029.35 1029.73 1029.73 1029.65 1029.76 1029.46 1029.27 1030.03 1029.99 1029.87 1029.00 1028.86 1028.50 1027.74 1028.22 1028.15 1027.66 1027.34 1027.09 1027.40 1027.30 1026.98 1026.25 1025.29 1023.36 1022.41 1021.85 1021.20 1020.75 1020.40 1020.20 1019.95 1019.94 1020.32 1020.76 1021.01 1021.20 1021.30 1021.32 1021.24 1020.99 1020.86 1020.46 1019.96 1019.53 1019.30 1018.82
1029.28 1029.05 1028.90 1028.74 1028.64 1028.89 1029.23 1028.99 1029.16 1028.82 1028.65 1028.82 1029.43 1028.72 1029.22 1028.38 1028.35 1027.91 1027.39 1027.53 1027.55 1027.33 1027.06 1026.45 1026.03 1026.32 1026.43 1025.62 1025.22 1024.32 1023.93 1023.17 1022.41 1022.05 1021.55 1021.04 1020.84 1020.86 1020.91 1021.07 1021.26 1021.44 1021.57 1021.61 1021.63 1021.55 1021.30 1021.00 1020.70 1020.38 1020.03 1019.52 1018.95 1018.28
1028.52 1028.37 1028.19 1028.11 1028.33 1028.88 1028.94 1028.68 1028.40 1028.04 1027.66 1028.07 1027.89 1028.03 1027.99 1027.52 1026.78 1026.21 1025.96 1025.96 1026.09 1026.05 1026.27 1025.87 1025.86 1025.66 1025.57 1024.88 1025.05 1024.75 1024.70 1024.37 1023.88 1023.09 1022.50 1022.31 1022.30 1022.30 1022.31 1022.24 1022.22 1022.20 1022.19 1022.21 1022.09 1021.85 1021.47 1021.03 1020.82 1020.45 1020.02 1019.44 1018.74 1017.97
1027.47 1027.42 1027.35 1027.32 1027.77 1028.45 1028.39 1028.05 1027.77 1027.52 1027.15 1027.20 1027.58 1027.84 1027.69 1027.12 1026.49 1026.21 1025.81 1025.91 1026.32 1026.64 1026.49 1026.17 1025.78 1025.69 1026.19 1026.22 1026.24 1026.24 1025.97 1025.80 1025.25 1024.17 1023.42 1023.31 1023.39 1023.29 1023.24 1023.18 1023.04 1022.89 1022.76 1022.64 1022.37 1021.82 1021.33 1020.96 1020.65 1020.40 1020.05 1019.17 1018.65 1017.94
1026.91 1026.79 1026.63 1027.14 1027.82 1027.85 1027.57 1027.23 1027.28 1026.76 1026.41 1026.84 1026.62 1027.21 1027.15 1026.91 1026.80 1026.52 1026.47 1026.20 1026.74 1026.80 1026.61 1026.45 1026.67 1027.02 1027.20 1027.08 1027.25 1027.29 1027.16 1026.97 1026.48 1026.06 1025.39 1024.61 1024.29 1024.13 1023.91 1023.80 1023.68 1023.49 1023.35 1023.10 1022.84 1022.37 1021.93 1021.49 1021.00 1020.62 1019.95 1019.32 1018.65 1017.77
1026.33 1026.09 1026.72 1026.78 1026.80 1026.72 1026.42 1026.11 1026.27 1026.11 1026.56 1026.13 1026.42 1026.45 1027.12 1027.20 1026.78 1025.93 1026.16 1026.93 1027.63 1027.80 1027.97 1027.96 1028.06 1028.12 1027.93 1027.80 1027.95 1028.06 1028.03 1027.66 1027.18 1026.74 1026.18 1025.91 1025.44 1024.96 1024.60 1024.37 1024.18 1024.02 1023.77 1023.51 1023.28 1022.91 1022.32 1021.82 1021.19 1020.54 1019.91 1019.18 1018.56 1017.80
1025.53 1025.64 1025.75 1025.85 1025.92 1025.81 1025.95 1026.11 1026.09 1025.98 1026.28 1026.09 1026.45 1026.84 1026.86 1026.48 1025.68 1025.94 1026.57 1027.21 1028.23 1028.92 1029.02 1028.92 1028.92 1028.90 1028.70 1028.62 1028.51 1028.57 1028.57 1028.23 1027.74 1027.34 1026.85 1026.35 1026.23 1026.04 1025.72 1025.35 1024.93 1024.49 1024.05 1023.75 1023.66 1023.26 1022.69 1021.92 1021.46 1020.58 1019.97 1019.37 1018.63 1017.72
1024.67 1024.89 1024.59 1024.48 1024.63 1025.12 1025.96 1026.08 1025.98 1026.08 1026.21 1026.54 1026.62 1026.47 1026.09 1025.66 1025.69 1026.06 1026.92 1028.35 1029.39 1029.73 1029.84 1029.99 1029.58 1029.20 1029.20 1029.25 1029.19 1029.04 1029.25 1028.97 1028.56 1027.87 1027.37 1026.99 1026.72 1026.56 1026.23 1025.91 1025.58 1025.05 1024.60 1024.30 1023.99 1023.54 1022.87 1022.19 1021.48 1020.85 1020.21 1019.51 1018.70 1017.79
1024.48 1024.03 1024.21 1024.08 1024.61 1025.22 1025.63 1026.00 1026.06 1026.34 1026.09 1026.07 1026.58 1026.02 1025.87 1026.27 1026.22 1026.56 1027.53 1029.40 1029.98 1030.32 1030.52 1030.68 1030.41 1030.17 1030.08 1029.94 1029.90 1029.69 1029.80 1029.71 1029.27 1028.63 1027.81 1027.43 1027.40 1027.02 1026.64 1026.23 1026.06 1025.43 1024.82 1024.63 1024.27 1023.64 1023.00 1022.29 1021.58 1020.92 1020.32 1019.62 1018.48 1017.48
1024.41 1023.91 1024.43 1024.44 1024.82 1025.30 1025.24 1025.60 1025.64 1025.70 1025.88 1026.20 1025.89 1025.53 1025.79 1026.45 1027.18 1027.99 1029.39 1030.38 1030.83 1031.11 1031.32 1031.44 1031.23 1030.87 1030.77 1030.71 1030.53 1030.25 1030.36 1030.27 1029.87 1029.10 1028.17 1027.88 1027.69 1027.43 1027.16 1026.82 1026.51 1025.68 1025.06 1024.84 1024.62 1023.93 1023.17 1022.46 1021.72 1020.95 1020.04 1019.32 1018.52 1017.84
1024.91 1025.31 1025.79 1026.02 1025.92 1025.86 1025.77 1025.71 1025.85 1026.22 1026.56 1026.75 1026.95 1026.76 1026.87 1027.26 1027.89 1029.54 1030.43 1031.15 1031.65 1031.94 1032.10 1032.04 1031.89 1031.82 1031.75 1031.60 1031.35 1031.06 1030.84 1030.52 1030.27 1029.49 1028.55 1028.11 1027.71 1027.41 1027.35 1027.33 1026.80 1026.03 1025.24 1025.02 1024.58 1024.06 1023.50 1022.60 1021.70 1020.84 1020.22 1019.41 1019.02 1018.40
1028.04 1028.36 1028.38 1028.15 1027.52 1027.29 1027.39 1027.39 1027.43 1027.70 1027.99 1028.24 1028.22 1028.24 1028.36 1028.91 1029.94 1030.71 1031.32 1032.05 1032.57 1032.78 1032.78 1032.67 1032.47 1032.72 1032.71 1032.32 1031.97 1031.71 1031.33 1030.74 1029.93 1028.85 1028.15 1027.84 1027.54 1027.33 1027.20 1027.01 1026.68 1025.80 1025.34 1025.08 1024.44 1023.90 1023.49 1022.61 1021.68 1021.07 1020.49 1019.94 1019.11 1018.40
1030.52 1030.72 1030.35 1029.87 1029.40 1029.17 1029.48 1029.85 1030.10 1030.20 1030.41 1030.47 1030.52 1030.16 1029.98 1030.62 1031.41 1031.88 1032.45 1032.89 1033.14 1033.57 1033.86 1033.66 1033.52 1033.36 1032.91 1032.46 1031.94 1031.68 1031.41 1031.54 1031.08 1030.39 1029.66 1028.95 1028.17 1027.45 1027.00 1026.70 1026.25 1025.78 1025.42 1025.08 1024.56 1023.94 1023.12 1022.17 1021.87 1021.08 1020.70 1020.23 1019.50 1018.55
1033.25 1033.39 1032.81 1032.19 1031.97 1031.62 1032.13 1032.36 1032.48 1032.47 1032.22 1032.23 1031.97 1031.59 1031.73 1032.09 1032.41 1032.58 1033.07 1033.48 1033.98 1034.22 1034.01 1033.92 1033.78 1033.88 1033.81 1033.66 1032.82 1031.80 1031.16 1030.89 1030.84 1030.57 1030.12 1029.22 1028.43 1027.39 1026.89 1026.45 1026.03 1025.62 1025.38 1025.13 1024.72 1024.12 1023.36 1022.74 1022.26 1021.62 1021.14 1020.49 1019.80 1018.87
1035.87 1035.56 1035.44 1035.03 1034.26 1033.90 1034.22 1034.37 1034.27 1034.29 1034.18 1033.95 1033.57 1033.23 1033.06 1033.03 1032.76 1032.68 1033.00 1033.36 1033.76 1033.70 1033.75 1033.68 1033.41 1033.20 1033.27 1033.21 1032.90 1032.11 1031.40 1030.34 1029.97 1029.66 1029.21 1028.38 1027.48 1026.80 1026.19 1025.61 1025.44 1025.35 1025.10 1024.91 1024.69 1024.48 1024.06 1023.55 1023.15 1022.62 1022.00 1021.44 1020.75 1019.99
1038.16 1038.96 1038.71 1038.13 1036.59 1035.72 1035.80 1036.17 1036.38 1035.91 1035.87 1035.21 1034.84 1034.11 1033.68 1033.42 1033.09 1032.68 1032.49 1032.93 1033.29 1033.44 1032.82 1032.84 1033.11 1032.40 1031.88 1031.71 1031.48 1031.21 1030.51 1029.80 1029.31 1028.87 1028.23 1027.31 1026.63 1025.85 1024.95 1024.50 1024.64 1024.76 1024.56 1024.39 1024.39 1024.48 1024.44 1024.07 1023.69 1023.27 1022.76 1022.14 1021.49 1020.80
1040.65 1040.90 1040.50 1040.24 1039.47 1038.68 1038.18 1038.20 1037.39 1037.24 1036.40 1036.00 1035.31 1034.79 1034.53 1033.86 1033.25 1032.33 1031.86 1031.87 1032.04 1032.12 1032.14 1031.86 1031.56 1031.26 1030.88 1030.58 1030.32 1029.91 1029.57 1028.93 1028.77 1027.09 1025.99 1025.72 1025.16 1024.30 1023.78 1023.77 1023.78 1023.80 1023.81 1023.89 1024.10 1024.31 1024.39 1024.14 1023.79 1023.41 1022.96 1022.48 1021.91 1021.28
Wind_Speed
15 13 13 12 11 10 10 10 10 10 11 12 13 13 14 15 16 5 2 4 2 2 7 4 3 5 1 2 4 2 3 2 1 3 3 4 3 4 1 5 8 9 9 6 4 5 13 7 4 6 3 1 3 4
11 11 10 10 9 9 9 8 9 8 8 9 10 11 12 13 14 7 2 3 1 2 7 2 4 4 5 6 4 4 5 5 6 2 3 2 3 2 4 6 3 4 9 7 12 11 4 7 5 5 1 5 3 2
11 11 11 11 10 10 10 10 11 11 11 10 8 8 8 9 10 6 2 2 2 3 6 4 4 2 1 4 2 3 3 1 2 3 4 3 6 4 5 7 2 4 6 4 1 3 13 9 4 2 3 2 3 10
11 11 10 9 8 8 9 10 11 12 12 12 13 13 10 8 7 4 0 1 1 1 3 7 2 4 3 4 1 3 3 1 2 0 2 4 4 3 4 4 4 6 5 8 12 18 15 1 2 4 4 6 9 7
10 9 9 11 10 11 12 12 12 12 12 13 13 13 11 11 7 2 1 1 1 0 3 7 9 4 4 4 3 3 2 2 0 5 4 6 3 5 4 2 12 6 15 10 16 10 4 7 8 6 6 9 8 3
10 10 11 11 11 12 12 12 12 13 12 11 12 12 11 10 2 2 4 1 1 1 2 4 2 4 5 5 3 2 1 2 3 2 2 3 1 2 4 3 7 4 3 3 6 6 5 5 5 8 9 7 5 5
10 10 10 10 11 12 14 14 13 13 12 13 13 14 7 6 2 3 4 2 3 1 3 4 4 4 3 3 2 2 2 2 2 2 3 1 2 3 3 11 23 6 4 6 4 4 4 2 5 6 5 8 8 6
10 11 11 11 11 11 13 15 16 17 15 13 13 10 5 3 4 2 3 6 3 1 1 3 6 4 4 3 4 2 3 3 3 2 3 0 3 1 5 6 7 5 7 4 6 1 6 6 7 8 2 3 9 11
10 11 12 12 13 14 14 15 16 16 13 13 12 3 4 5 3 2 11 8 1 0 2 2 3 4 3 2 2 4 1 1 1 1 2 1 1 6 7 5 4 4 1 6 9 7 8 5 10 9 4 2 4 9
12 13 13 13 14 15 14 14 15 14 10 8 6 5 4 1 8 8 2 2 0 1 1 3 1 3 3 1 4 2 1 2 1 4 2 1 6 7 9 9 8 5 7 2 4 8 6 12 7 7 7 6 7 8
13 13 13 14 14 14 14 13 10 10 6 4 4 2 4 4 1 2 1 2 3 5 2 4 3 3 0 0 3 1 2 1 2 5 2 3 6 6 5 5 7 4 3 6 6 7 5 8 8 8 10 6 5 6
14 12 13 14 14 13 12 11 9 3 2 2 2 1 1 3 2 4 1 3 2 4 3 4 4 3 3 0 1 3 2 3 6 1 3 5 8 7 7 7 4 5 5 8 5 7 7 4 5 5 7 7 9 8
12 13 14 13 13 14 14 13 11 3 2 3 1 2 3 3 1 1 3 5 2 3 3 1 3 1 3 1 2 1 1 5 1 3 5 8 5 5 5 4 6 6 4 5 7 4 5 4 3 3 10 6 7 9
12 13 14 15 15 14 9 8 2 4 4 1 2 5 2 4 5 6 6 5 5 3 1 1 2 2 2 1 2 2 1 2 3 2 9 6 5 5 5 4 2 7 6 7 7 4 6 6 7 5 6 7 9 9
13 13 14 15 7 7 5 2 4 3 2 1 1 5 6 4 4 4 3 3 4 2 2 1 2 2 2 3 3 1 5 5 7 8 6 4 5 4 5 5 7 6 5 3 2 4 6 7 6 7 6 7 7 9
13 12 4 5 7 7 4 4 3 2 1 3 5 4 3 2 5 2 3 6 3 2 2 1 4 2 5 4 2 8 5 9 7 4 4 3 4 6 7 7 6 4 1 3 4 5 6 6 6 8 8 6 6 8
11 4 5 9 13 14 1 2 1 4 5 5 5 5 4 2 6 5 5 5 3 4 3 3 4 10 1 4 4 5 7 9 5 6 3 5 7 8 7 5 3 4 4 4 4 5 5 6 6 6 8 9 7 9
5 6 13 13 11 1 2 3 3 4 7 5 4 5 4 4 4 5 4 3 4 4 3 5 3 5 6 5 5 6 3 4 3 4 8 9 9 8 7 6 6 5 5 5 4 5 5 6 7 6 9 10 9 8
6 6 12 13 5 2 2 3 3 5 8 3 3 2 3 4 5 6 6 3 4 2 2 3 6 4 5 2 2 4 5 6 7 9 9 6 8 7 7 7 6 6 6 5 5 5 5 6 5 6 7 8 8 8
16 16 16 14 6 3 4 4 2 4 4 5 2 3 4 5 2 3 3 3 4 3 4 5 5 1 2 3 3 5 6 7 7 8 6 7 6 7 7 6 5 6 5 5 5 11 6 6 5 7 7 9 10 9
8 6 10 4 2 4 4 3 3 4 3 4 2 2 5 3 4 3 3 2 3 5 4 1 1 2 3 3 3 4 5 6 6 4 8 8 6 5 4 4 5 5 5 4 5 8 10 7 8 8 8 9 9 9
4 7 2 3 5 5 5 4 5 3 1 3 1 2 3 4 5 4 2 2 2 1 0 1 2 4 4 2 3 3 4 7 6 5 9 9 7 7 6 5 5 5 5 5 6 7 8 8 8 8 9 10 12 10
7 6 4 6 7 7 6 1 4 4 5 3 1 3 5 5 5 1 2 0 2 0 1 1 3 4 3 3 3 3 4 7 5 5 5 4 5 6 6 6 5 5 5 6 7 7 8 15 12 11 10 10 10 10
9 5 6 6 8 5 1 4 1 1 0 2 4 5 6 5 0 2 4 2 1 2 3 5 4 3 2 2 3 5 6 5 5 5 5 5 4 5 5 5 6 5 5 6 7 7 8 9 15 10 10 11 11 11
5 5 4 6 0 3 4 2 3 2 6 3 4 5 4 3 2 2 1 2 1 2 3 4 4 3 3 3 5 5 4 5 6 7 6 2 2 3 4 4 6 6 4 6 7 10 10 10 10 11 11 11 14 15
7 5 6 5 2 4 3 3 5 4 2 3 6 3 1 1 3 1 2 1 1 1 3 4 4 4 4 4 5 5 6 5 6 5 5 3 4 2 3 5 7 6 6 5 6 10 12 11 11 14 13 15 21 17
5 1 3 3 2 1 3 2 2 2 3 3 3 4 3 4 2 1 2 1 1 2 3 3 3 4 4 5 5 4 4 3 3 7 8 6 5 3 2 4 7 7 6 5 8 8 11 12 13 12 12 12 10 11
4 5 6 7 3 2 3 3 2 3 3 3 3 3 3 2 1 1 1 1 1 2 2 2 1 1 3 3 4 4 5 4 8 6 3 2 2 3 2 4 5 16 9 7 10 6 8 10 9 11 10 11 12 11
4 5 5 3 2 2 1 2 2 2 3 2 2 3 2 1 1 1 1 0 2 3 3 4 4 4 4 3 3 3 2 0 5 6 5 5 4 4 4 7 6 6 5 5 15 16 15 11 10 9 10 9 10 10
4 5 4 3 2 3 1 3 2 3 2 2 2 2 2 2 2 0 1 2 2 2 3 3 3 1 3 2 5 7 3 3 4 3 3 5 5 8 8 8 7 6 4 4 6 8 15 10 10 7 9 8 9 9
4 3 3 2 4 2 2 3 3 2 2 2 2 2 2 2 2 2 2 3 2 0 3 4 4 2 2 4 2 4 7 4 4 7 7 7 8 9 9 7 5 4 3 3 3 4 4 6 7 8 9 11 13 13
5 3 2 4 6 4 4 5 3 2 4 3 3 2 3 2 1 3 3 3 1 2 4 0 3 5 3 4 5 6 15 9 7 6 9 8 9 11 12 5 4 3 3 3 2 3 3 4 5 6 8 10 11 11
3 2 1 3 5 7 5 7 4 6 3 3 2 1 2 1 4 3 1 4 4 3 4 4 4 5 6 8 8 8 10 5 10 18 20 20 22 19 12 3 4 4 1 3 3 2 4 5 5 6 7 8 9 10
Wind_Direction
75 75 74 69 63 56 50 41 36 26 24 24 20 20 21 18 17 30 308 357 80 237 278 235 234 213 245 164 238 206 356 325 73 208 237 249 251 247 349 154 181 170 165 206 179 219 274 151 121 186 223 254 201 205
68 64 58 54 47 41 39 34 24 16 14 15 17 19 15 11 12 28 17 336 341 175 248 284 271 260 216 205 169 217 214 178 204 124 218 277 246 209 208 268 50 249 197 194 191 215 242 207 227 233 185 252 167 184
59 54 49 42 32 25 20 15 12 1 350 337 336 349 0 5 11 33 293 299 33 333 296 2 270 72 78 216 288 181 305 244 324 187 189 230 251 107 262 245 193 257 209 228 224 239 258 278 249 242 177 138 185 228
49 44 37 29 25 13 5 3 359 351 355 347 344 344 335 321 327 21 259 242 170 251 282 282 1 341 21 9 286 233 216 256 140 10 260 235 239 204 234 243 216 213 147 255 261 281 290 251 244 198 198 226 245 255
39 30 24 21 18 13 9 2 354 343 339 338 337 330 334 336 322 63 171 266 169 186 263 294 322 8 18 23 48 48 34 298 255 250 236 256 234 233 245 252 262 217 255 247 265 324 336 303 282 192 223 248 244 220
24 19 11 3 2 2 356 346 341 336 329 330 325 323 324 334 41 30 13 334 70 153 286 290 268 24 350 3 26 37 168 220 217 237 246 244 184 217 260 260 259 312 12 118 279 304 295 305 271 218 233 265 266 242
13 7 2 358 355 350 344 336 328 322 328 332 329 328 355 358 128 155 193 261 351 9 285 300 288 330 322 300 342 354 338 234 231 276 251 274 219 237 243 262 278 309 305 324 312 320 334 292 267 325 267 273 296 272
1 356 353 350 347 344 342 337 336 334 330 326 323 334 322 336 42 36 10 20 26 83 306 274 272 2 6 325 334 356 354 7 337 287 330 298 316 355 260 259 282 299 309 331 344 272 236 278 296 292 262 351 315 303
349 348 344 341 337 336 335 336 338 339 332 327 331 16 47 31 41 258 321 333 24 322 263 265 318 289 354 280 254 345 8 330 285 256 269 322 230 235 236 239 276 254 130 278 313 303 301 285 285 298 312 333 256 290
338 341 339 335 335 332 330 328 331 333 335 350 36 42 352 352 326 331 33 26 164 317 255 238 5 288 72 343 304 315 5 232 310 255 342 153 263 266 251 235 260 297 252 147 343 330 321 311 319 312 291 260 240 267
330 329 331 331 336 338 337 334 348 345 28 33 5 285 250 307 46 48 39 63 334 351 246 254 183 265 287 263 263 192 270 243 16 269 109 299 275 254 290 293 233 289 280 245 239 253 246 252 281 294 308 296 283 285
323 329 330 330 329 327 327 330 335 20 180 215 248 60 335 18 16 58 332 321 104 232 249 210 232 206 293 4 77 301 213 40 243 276 62 281 253 257 277 335 354 283 277 277 219 273 295 250 259 258 275 295 316 311
326 319 318 316 319 319 318 320 322 356 70 25 354 330 41 310 349 210 246 296 289 228 239 239 313 198 349 22 285 17 324 235 14 47 232 234 260 298 281 275 298 302 282 281 309 297 313 304 288 285 316 304 304 309
311 307 309 311 314 321 324 314 245 58 54 27 348 301 223 260 237 196 191 201 238 157 182 130 277 206 220 345 206 236 253 59 4 316 237 256 248 237 260 246 247 275 289 285 284 284 308 311 314 305 293 297 311 310
303 307 306 302 299 310 325 320 178 58 87 226 210 236 230 245 245 228 247 312 238 206 147 357 265 192 245 251 198 16 350 259 207 228 232 242 252 240 259 242 254 264 275 272 279 319 318 322 316 307 293 293 289 298
307 314 279 301 313 331 17 71 39 75 225 226 229 244 222 298 282 276 204 257 192 193 83 94 251 240 236 196 155 221 146 227 246 215 244 257 260 252 254 279 279 274 316 346 340 322 312 308 307 303 296 285 292 307
302 237 291 309 312 317 287 119 115 216 226 222 234 228 185 249 239 252 176 231 165 115 201 195 232 222 130 226 239 191 213 263 304 310 269 267 286 291 293 308 54 23 15 357 330 324 309 311 296 302 324 327 314 307
249 258 269 278 296 16 342 169 219 234 237 222 229 221 201 217 221 251 227 174 126 192 155 220 197 203 232 209 261 251 253 272 270 323 329 328 337 355 20 20 23 17 356 344 339 307 295 317 327 325 319 311 314 309
255 256 264 272 273 171 233 237 207 250 237 223 269 239 220 248 233 250 260 193 202 157 184 224 244 222 238 241 310 335 340 346 323 320 313 30 23 17 9 9 4 360 349 344 330 316 312 307 298 309 310 316 310 320
282 289 284 275 164 191 246 246 222 248 243 233 238 247 222 229 286 248 250 156 147 170 208 230 224 256 5 353 355 326 327 346 318 318 322 351 4 357 6 360 353 337 333 333 330 344 326 329 334 329 317 318 324 313
286 244 241 143 169 204 226 198 242 227 225 220 190 177 265 343 278 266 265 152 92 204 223 39 61 31 345 342 30 347 348 341 328 325 316 323 339 343 347 347 345 347 341 331 334 330 342 329 324 314 314 313 309 316
225 191 147 199 213 217 239 199 194 226 184 238 328 178 255 266 256 233 171 111 219 212 64 349 2 337 331 21 14 22 349 339 331 331 338 344 331 341 341 344 342 340 337 337 342 329 323 323 312 323 316 317 324 312
238 181 190 203 214 210 241 360 198 205 226 236 108 220 234 233 222 68 201 119 105 80 346 10 332 310 304 1 9 1 2 350 341 335 331 333 330 330 330 332 334 329 329 339 339 326 319 321 320 323 323 318 315 313
180 212 210 210 200 223 70 200 10 224 284 213 196 245 259 227 74 192 233 74 48 21 27 357 346 351 342 340 356 353 343 335 319 324 332 324 339 331 329 334 328 328 331 326 325 320 319 318 324 320 318 318 314 310
231 225 210 232 13 154 209 227 216 182 233 215 181 272 297 357 263 223 127 57 31 16 14 345 343 358 333 320 329 328 334 341 327 321 317 337 313 315 327 334 322 316 324 333 327 329 323 320 320 319 320 314 318 322
218 221 198 203 197 197 207 238 214 234 219 237 224 246 222 237 265 327 56 297 343 341 3 335 325 324 325 327 320 331 324 325 319 303 292 10 318 298 311 330 322 320 347 326 328 321 319 319 315 317 317 325 328 331
227 74 19 27 325 283 265 225 214 225 249 262 352 329 356 264 259 93 147 86 328 10 331 318 314 318 308 310 304 302 308 295 284 273 287 287 282 282 262 307 305 300 310 339 317 319 317 314 312 318 321 323 324 321
27 25 2 330 322 352 308 304 299 9 20 352 294 291 298 331 9 80 64 76 355 317 315 310 334 21 289 281 285 302 303 317 307 306 303 288 258 280 263 299 287 323 339 316 329 326 311 305 325 319 330 321 319 321
27 350 315 291 296 298 0 352 18 44 7 337 314 273 255 74 53 69 24 329 360 56 17 348 315 345 313 305 296 290 256 5 36 12 356 316 319 292 326 321 304 299 305 307 328 341 331 340 339 339 335 324 316 318
16 347 314 320 281 270 10 14 311 325 304 277 292 346 21 348 276 192 59 20 27 279 243 239 273 6 290 325 313 320 285 208 194 178 229 273 274 293 304 297 289 289 300 305 317 325 342 351 340 345 346 342 343 348
343 316 296 294 270 278 309 310 309 292 353 340 333 161 231 297 294 235 194 203 193 40 339 307 301 230 254 288 267 302 312 291 239 246 255 267 276 288 286 276 266 272 269 278 313 321 328 336 339 338 340 342 340 351
360 53 11 319 296 303 4 11 309 343 334 18 326 352 353 35 298 280 218 142 122 295 282 237 277 294 240 247 251 238 263 280 282 268 276 280 278 278 293 265 249 251 250 293 313 306 307 319 318 330 331 332 334 336
358 13 3 342 319 332 341 346 351 334 353 357 302 229 217 241 227 260 268 205 208 218 257 262 258 266 271 268 264 276 293 268 276 286 302 310 305 300 310 287 244 216 258 304 286 288 297 312 309 316 318 319 322 325